Tracking 19245 objects as of 21-Aug-2018
HD Live streaming from Space Station
objects crossing your sky now

NOAA 16 DEB

Track NOAA 16 DEB now!
10-day predictions


NORAD ID: 41153
Int'l Code: 2000-055CL
Perigee: 828.4 km
Apogee: 862.5 km
Inclination: 98.9 °
Period: 101.7 minutes
Semi major axis: 7216 km
RCS: Unknown
Launch date: September 21, 2000
Source: United States (US)
Launch site: AIR FORCE WESTERN TEST RANGE (AFWTR)

Note: This is SATELLITE DEBRIS
aabbcc
Your satellite tracking list
Your tracking list is empty




NASA's NSSDC Master Catalog

Two Line Element Set (TLE):
1 41153U 00055CL  18232.44121123  .00000467  00000-0  25772-3 0  9991
2 41153  98.8574 310.5227 0023640 108.3764 251.9984 14.16177796140496
Source of the keplerian elements: AFSPC